Weather History for Setif, Algeria

Change the Weather History Date:

Friday, February 1, 2013

  Actual Average Record
Temperature  
Mean Temperature 47 °F -  
Max Temperature 64 °F - - ()
Min Temperature 30 °F - - ()
Degree Days  
Heating Degree Days 18    
Moisture  
Dew Point 32 °F    
Average Humidity 59    
Maximum Humidity 87    
Minimum Humidity 19    
Precipitation  
Precipitation 0.00 in - - ()
Sea Level Pressure  
Sea Level Pressure 30.30 in    
Wind  
Wind Speed 5 mph ()    
Max Wind Speed 14 mph    
Max Gust Speed -    
Visibility 11.3 miles    
Events      
T = Trace of Precipitation, MM = Missing Value Source: Averaged Metar Reports

Daily Weather History Graph

Daily Weather History Graph

Search for Another Location

Airport:

Trip Planner

Search our weather history database for the weather conditions in past years. The results will help you decide how hot, cold, wet, or windy it might be!

Date:

Astronomy

Feb. 01, 2013 Rise Set
Actual Time 7:39 AM CET 6:05 PM CET
Civil Twilight 7:12 AM CET 6:32 PM CET
Nautical Twilight 6:41 AM CET 7:03 PM CET
Astronomical Twilight 6:11 AM CET 7:33 PM CET
Moon 11:42 PM CET (2/1) 10:15 AM CET (2/1)
Length of Visible Light 11h 19m
Length of Day
10h 25m
Waning Gibbous, 73% of the Moon is Illuminated
Feb 1
Waning Gibbous
Feb 3
Last Quarter
Feb 10
New
Feb 17
First Quarter
Feb 25
Full

Hourly Weather History & Observations

Time (CET) Temp. Windchill Dew Point Humidity Pressure Visibility Wind Dir Wind Speed Gust Speed Precip Events Conditions
12:00 AM 39.2 °F 35.9 °F 33.8 °F 81% 30.45 in - NNW 4.6 mph - N/A   Clear
1:00 AM 36 °F - 30 °F 72%  in 12 mi North 2.3 mph - -   Clear
1:00 AM 35.6 °F - 30.2 °F 81% 30.42 in - North 2.3 mph - N/A   Clear
2:00 AM 35.6 °F - 30.2 °F 81% 30.42 in - NNW 2.3 mph - N/A   Clear
3:00 AM 33.8 °F - 30.2 °F 87% 30.42 in - NNW 2.3 mph - N/A   Clear
4:00 AM 33 °F - 29 °F 79%  in 12 mi NNE 2.3 mph - -   Clear
4:00 AM 33.8 °F - 28.4 °F 81% 30.39 in - NNE 2.3 mph - N/A   Clear
5:00 AM 32.0 °F - 28.4 °F 87% 30.39 in - NNW 2.3 mph - N/A   Clear
6:00 AM 32.0 °F - 28.4 °F 87% 30.36 in - WSW 2.3 mph - N/A   Clear
7:00 AM 31 °F - 27 °F 81%  in 12 mi West 2.3 mph - -   Clear
7:00 AM 32.0 °F - 26.6 °F 80% 30.36 in - West 2.3 mph - N/A   Clear
8:00 AM 33.8 °F 30.8 °F 23.0 °F 65% 30.36 in - WNW 3.5 mph - N/A   Clear
9:00 AM 44.6 °F - 30.2 °F 57% 30.36 in - NW 2.3 mph - N/A   Clear
10:00 AM 51 °F - 32 °F 35%  in 12 mi West 6.9 mph - -   Clear
10:00 AM 50.0 °F - 32.0 °F 50% 30.36 in - West 6.9 mph - N/A   Clear
11:00 AM 53.6 °F - 33.8 °F 47% 30.36 in - West 9.2 mph - N/A   Clear
12:00 PM 55.4 °F - 37.4 °F 51% 30.36 in - West 9.2 mph - N/A   Clear
1:00 PM 58 °F - 38 °F 36%  in 12 mi West 11.5 mph - -   Clear
1:00 PM 57.2 °F - 37.4 °F 48% 30.30 in - West 11.5 mph - N/A   Clear
2:00 PM 62.6 °F - 39.2 °F 42% 30.27 in - West 9.2 mph - N/A   Clear
3:00 PM 62.6 °F - 35.6 °F 37% 30.24 in - West 10.4 mph - N/A   Clear
4:00 PM 64 °F - 32 °F 19%  in 12 mi WSW 11.5 mph - -   Clear
4:00 PM 64.4 °F - 32.0 °F 30% 30.21 in - WSW 11.5 mph - N/A   Clear
5:00 PM 62.6 °F - 37.4 °F 39% 30.21 in - West 9.2 mph - N/A   Clear
6:00 PM 53.6 °F - 39.2 °F 58% 30.18 in - West 9.2 mph - N/A   Clear
7:00 PM 51 °F - 35 °F 41%  in 9 mi WNW 9.2 mph - -   Clear
7:00 PM 51.8 °F - 33.8 °F 50% 30.18 in - WNW 9.2 mph - N/A   Clear
8:00 PM 46.4 °F 41.9 °F 32.0 °F 57% 30.15 in - West 9.2 mph - N/A   Clear
9:00 PM 46.4 °F 40.4 °F 32.0 °F 57% 30.15 in - West 13.8 mph - N/A   Clear
10:00 PM 45 °F - 31 °F 47%  in 9 mi West 9.2 mph - -   Clear
10:00 PM 44.6 °F 39.7 °F 32.0 °F 61% 30.12 in - West 9.2 mph - N/A   Clear
11:00 PM 46.4 °F 41.9 °F 32.0 °F 57% 30.12 in - WNW 9.2 mph - N/A   Clear